TimeCST,TemperatureF,Dew PointF,Humidity,Sea Level PressureIn,VisibilityMPH,Wind Direction,Wind SpeedMPH,Gust SpeedMPH,PrecipitationIn,Events,Conditions,WindDirDegrees,DateUTC
12:32 AM,42.8,42.8,100,30.26,2.5,NNW,13.8,19.6,N/A,,Overcast,330,2013-11-22 06:32:00
12:44 AM,42.8,42.8,100,30.27,3.0,NNW,10.4,17.3,N/A,,Overcast,340,2013-11-22 06:44:00
12:53 AM,42.1,42.1,100,30.28,3.0,NNW,12.7,20.7,N/A,,Overcast,330,2013-11-22 06:53:00
1:15 AM,39.2,39.2,100,30.29,2.5,North,12.7,-,N/A,,Overcast,350,2013-11-22 07:15:00
1:53 AM,37.9,37.9,100,30.30,4.0,NNW,15.0,21.9,N/A,,Overcast,340,2013-11-22 07:53:00
2:53 AM,36.0,36.0,100,30.34,10.0,North,10.4,19.6,0.00,,Overcast,10,2013-11-22 08:53:00
3:53 AM,36.0,35.1,97,30.35,9.0,North,6.9,16.1,0.00,,Overcast,10,2013-11-22 09:53:00
4:53 AM,34.0,33.1,96,30.37,10.0,North,10.4,18.4,N/A,,Overcast,360,2013-11-22 10:53:00
5:53 AM,34.0,33.1,96,30.40,10.0,North,10.4,-,N/A,,Overcast,350,2013-11-22 11:53:00
6:53 AM,33.1,32.0,96,30.41,10.0,North,9.2,-,N/A,,Overcast,350,2013-11-22 12:53:00
7:53 AM,33.1,32.0,96,30.46,10.0,North,9.2,17.3,N/A,,Overcast,10,2013-11-22 13:53:00
8:53 AM,33.1,30.9,92,30.47,5.0,North,8.1,-,0.00,,Overcast,10,2013-11-22 14:53:00
9:53 AM,32.0,32.0,100,30.49,2.0,North,6.9,-,N/A,,Overcast,10,2013-11-22 15:53:00
10:53 AM,33.1,32.0,96,30.49,2.5,North,10.4,-,N/A,,Overcast,360,2013-11-22 16:53:00
11:42 AM,33.8,32.0,93,30.45,3.0,NNE,9.2,17.3,N/A,,Overcast,20,2013-11-22 17:42:00
11:53 AM,34.0,32.0,92,30.47,4.0,North,8.1,-,N/A,,Overcast,360,2013-11-22 17:53:00
12:53 PM,34.0,32.0,92,30.46,4.0,North,8.1,-,N/A,,Overcast,360,2013-11-22 18:53:00
1:53 PM,33.1,32.0,96,30.47,5.0,North,10.4,-,N/A,,Overcast,360,2013-11-22 19:53:00
2:53 PM,34.0,32.0,92,30.48,5.0,North,9.2,-,N/A,,Overcast,350,2013-11-22 20:53:00
3:53 PM,33.1,32.0,96,30.49,4.0,Variable,6.9,-,0.01,Rain,Light Rain,0,2013-11-22 21:53:00
4:53 PM,33.1,32.0,96,30.48,4.0,NNE,6.9,-,0.01,Rain,Light Rain,20,2013-11-22 22:53:00
5:53 PM,33.1,32.0,96,30.49,10.0,NNE,5.8,-,0.01,,Overcast,20,2013-11-22 23:53:00
6:53 PM,33.1,30.9,92,30.49,9.0,North,6.9,-,0.00,,Overcast,360,2013-11-23 00:53:00
7:53 PM,33.1,32.0,96,30.50,10.0,NNE,5.8,-,0.00,Rain,Light Rain,20,2013-11-23 01:53:00
8:53 PM,32.0,32.0,100,30.49,6.0,NE,3.5,-,0.06,Rain,Rain,40,2013-11-23 02:53:00
9:53 PM,32.0,30.9,96,30.51,10.0,Calm,Calm,-,0.02,,Overcast,0,2013-11-23 03:53:00
10:53 PM,32.0,30.9,96,30.51,9.0,Variable,5.8,-,0.02,,Overcast,0,2013-11-23 04:53:00
11:53 PM,32.0,30.9,96,30.52,10.0,NE,5.8,-,0.01,,Overcast,40,2013-11-23 05:53:00